Year,Month,Day,Hour,Minute,Value (Times are PST for temperature in C)
2011,04,15,00,00,5.30
2011,04,15,00,01,5.30
2011,04,15,00,02,5.20
2011,04,15,00,03,5.20
2011,04,15,00,04,5.20
2011,04,15,00,05,5.20
2011,04,15,00,06,5.10
2011,04,15,00,07,5.10
2011,04,15,00,08,5.10
2011,04,15,00,09,5.10
2011,04,15,00,10,5.10
2011,04,15,00,11,5.10
2011,04,15,00,12,5.10
2011,04,15,00,13,5.10
2011,04,15,00,14,5.00
2011,04,15,00,15,5.00
2011,04,15,00,16,5.00
2011,04,15,00,17,5.00
2011,04,15,00,18,5.00
2011,04,15,00,19,5.00
2011,04,15,00,20,5.00
2011,04,15,00,21,5.00
2011,04,15,00,22,5.00
2011,04,15,00,23,5.00
2011,04,15,00,24,5.00
2011,04,15,00,25,5.00
2011,04,15,00,26,5.00
2011,04,15,00,27,5.00
2011,04,15,00,28,5.00
2011,04,15,00,29,5.00
2011,04,15,00,30,5.00
2011,04,15,00,31,5.00
2011,04,15,00,32,5.00
2011,04,15,00,33,5.00
2011,04,15,00,34,5.00
2011,04,15,00,35,5.00
2011,04,15,00,36,4.90
2011,04,15,00,37,4.90
2011,04,15,00,38,4.90
2011,04,15,00,39,4.90
2011,04,15,00,40,4.90
2011,04,15,00,41,4.90
2011,04,15,00,42,4.90
2011,04,15,00,43,4.90
2011,04,15,00,44,4.90
2011,04,15,00,45,4.90
2011,04,15,00,46,4.90
2011,04,15,00,47,4.90
2011,04,15,00,48,4.90
2011,04,15,00,49,4.90
2011,04,15,00,50,4.90
2011,04,15,00,51,4.90
2011,04,15,00,52,4.90
2011,04,15,00,53,4.90
2011,04,15,00,54,4.90
2011,04,15,00,55,4.90
2011,04,15,00,56,4.90
2011,04,15,00,57,4.90
2011,04,15,00,58,4.90
2011,04,15,00,59,4.90
2011,04,15,01,00,4.90
2011,04,15,01,01,4.90
2011,04,15,01,02,4.90
2011,04,15,01,03,4.90
2011,04,15,01,04,4.90
2011,04,15,01,05,4.90
2011,04,15,01,06,4.90
2011,04,15,01,07,4.90
2011,04,15,01,08,4.90
2011,04,15,01,09,4.90
2011,04,15,01,10,4.90
2011,04,15,01,11,4.90
2011,04,15,01,12,4.90
2011,04,15,01,13,4.90
2011,04,15,01,14,4.90
2011,04,15,01,15,4.90
2011,04,15,01,16,4.90
2011,04,15,01,17,4.90
2011,04,15,01,18,4.90
2011,04,15,01,19,4.90
2011,04,15,01,20,4.90
2011,04,15,01,21,4.90
2011,04,15,01,22,4.90
2011,04,15,01,23,4.90
2011,04,15,01,24,4.90
2011,04,15,01,25,4.90
2011,04,15,01,26,4.90
2011,04,15,01,27,4.90
2011,04,15,01,28,4.90
2011,04,15,01,29,4.90
2011,04,15,01,30,4.90
2011,04,15,01,31,4.90
2011,04,15,01,32,4.90
2011,04,15,01,33,4.90
2011,04,15,01,34,4.90
2011,04,15,01,35,4.90
2011,04,15,01,36,4.90
2011,04,15,01,37,4.90
2011,04,15,01,38,4.90
2011,04,15,01,39,4.90
2011,04,15,01,40,4.80
2011,04,15,01,41,4.80
2011,04,15,01,42,4.80
2011,04,15,01,43,4.80
2011,04,15,01,44,4.80
2011,04,15,01,45,4.80
2011,04,15,01,46,4.80
2011,04,15,01,47,4.80
2011,04,15,01,48,4.80
2011,04,15,01,49,4.80
2011,04,15,01,50,4.80
2011,04,15,01,51,4.80
2011,04,15,01,52,4.80
2011,04,15,01,53,4.80
2011,04,15,01,54,4.80
2011,04,15,01,55,4.80
2011,04,15,01,56,4.80
2011,04,15,01,57,4.90
2011,04,15,01,58,4.90
2011,04,15,01,59,4.90
2011,04,15,02,00,4.90
2011,04,15,02,01,4.90
2011,04,15,02,02,4.90
2011,04,15,02,03,4.90
2011,04,15,02,04,5.00
2011,04,15,02,05,5.00
2011,04,15,02,06,5.00
2011,04,15,02,07,5.00
2011,04,15,02,08,5.00
2011,04,15,02,09,5.10
2011,04,15,02,10,5.10
2011,04,15,02,11,5.10
2011,04,15,02,12,5.10
2011,04,15,02,13,5.10
2011,04,15,02,14,5.10
2011,04,15,02,15,5.10
2011,04,15,02,16,5.10
2011,04,15,02,17,5.10
2011,04,15,02,18,5.00
2011,04,15,02,19,5.00
2011,04,15,02,20,5.00
2011,04,15,02,21,5.00
2011,04,15,02,22,5.00
2011,04,15,02,23,4.90
2011,04,15,02,24,4.90
2011,04,15,02,25,4.90
2011,04,15,02,26,4.90
2011,04,15,02,27,4.90
2011,04,15,02,28,4.90
2011,04,15,02,29,4.90
2011,04,15,02,30,4.90
2011,04,15,02,31,4.90
2011,04,15,02,32,4.90
2011,04,15,02,33,4.80
2011,04,15,02,34,4.80
2011,04,15,02,35,4.80
2011,04,15,02,36,4.80
2011,04,15,02,37,4.80
2011,04,15,02,38,4.80
2011,04,15,02,39,4.80
2011,04,15,02,40,4.70
2011,04,15,02,41,4.70
2011,04,15,02,42,4.70
2011,04,15,02,43,4.70
2011,04,15,02,44,4.70
2011,04,15,02,45,4.70
2011,04,15,02,46,4.70
2011,04,15,02,47,4.70
2011,04,15,02,48,4.60
2011,04,15,02,49,4.60
2011,04,15,02,50,4.60
2011,04,15,02,51,4.60
2011,04,15,02,52,4.50
2011,04,15,02,53,4.50
2011,04,15,02,54,4.50
2011,04,15,02,55,4.40
2011,04,15,02,56,4.40
2011,04,15,02,57,4.40
2011,04,15,02,58,4.30
2011,04,15,02,59,4.30
2011,04,15,03,00,4.30
2011,04,15,03,01,4.30
2011,04,15,03,02,4.30
2011,04,15,03,03,4.20
2011,04,15,03,04,4.20
2011,04,15,03,05,4.20
2011,04,15,03,06,4.20
2011,04,15,03,07,4.20
2011,04,15,03,08,4.10
2011,04,15,03,09,4.10
2011,04,15,03,10,4.10
2011,04,15,03,11,4.00
2011,04,15,03,12,4.00
2011,04,15,03,13,3.90
2011,04,15,03,14,3.90
2011,04,15,03,15,3.90
2011,04,15,03,16,3.90
2011,04,15,03,17,3.80
2011,04,15,03,18,3.80
2011,04,15,03,19,3.80
2011,04,15,03,20,3.70
2011,04,15,03,21,3.70
2011,04,15,03,22,3.70
2011,04,15,03,23,3.70
2011,04,15,03,24,3.60
2011,04,15,03,25,3.60
2011,04,15,03,26,3.60
2011,04,15,03,27,3.50
2011,04,15,03,28,3.50
2011,04,15,03,29,3.40
2011,04,15,03,30,3.40
2011,04,15,03,31,3.40
2011,04,15,03,32,3.30
2011,04,15,03,33,3.30
2011,04,15,03,34,3.30
2011,04,15,03,35,3.30
2011,04,15,03,36,3.30
2011,04,15,03,37,3.20
2011,04,15,03,38,3.20
2011,04,15,03,39,3.20
2011,04,15,03,40,3.20
2011,04,15,03,41,3.10
2011,04,15,03,42,3.10
2011,04,15,03,43,3.10
2011,04,15,03,44,3.10
2011,04,15,03,45,3.10
2011,04,15,03,46,3.10
2011,04,15,03,47,3.00
2011,04,15,03,48,3.00
2011,04,15,03,49,3.00
2011,04,15,03,50,3.00
2011,04,15,03,51,3.00
2011,04,15,03,52,3.00
2011,04,15,03,53,3.00
2011,04,15,03,54,3.00
2011,04,15,03,55,3.00
2011,04,15,03,56,3.00
2011,04,15,03,57,3.00
2011,04,15,03,58,2.90
2011,04,15,03,59,2.90
2011,04,15,04,00,2.90
2011,04,15,04,01,2.90
2011,04,15,04,02,2.90
2011,04,15,04,03,2.90
2011,04,15,04,04,2.90
2011,04,15,04,05,2.90
2011,04,15,04,06,2.90
2011,04,15,04,07,2.90
2011,04,15,04,08,2.80
2011,04,15,04,09,2.80
2011,04,15,04,10,2.80
2011,04,15,04,11,2.80
2011,04,15,04,12,2.80
2011,04,15,04,13,2.80
2011,04,15,04,14,2.80
2011,04,15,04,15,2.80
2011,04,15,04,16,2.80
2011,04,15,04,17,2.80
2011,04,15,04,18,2.80
2011,04,15,04,19,2.80
2011,04,15,04,20,2.80
2011,04,15,04,21,2.80
2011,04,15,04,22,2.80
2011,04,15,04,23,2.80
2011,04,15,04,24,2.80
2011,04,15,04,25,2.80
2011,04,15,04,26,2.80
2011,04,15,04,27,2.80
2011,04,15,04,28,2.80
2011,04,15,04,29,2.80
2011,04,15,04,30,2.80
2011,04,15,04,31,2.80
2011,04,15,04,32,2.80
2011,04,15,04,33,2.80
2011,04,15,04,34,2.80
2011,04,15,04,35,2.80
2011,04,15,04,36,2.80
2011,04,15,04,37,2.80
2011,04,15,04,38,2.80
2011,04,15,04,39,2.80
2011,04,15,04,40,2.80
2011,04,15,04,41,2.80
2011,04,15,04,42,2.90
2011,04,15,04,43,2.90
2011,04,15,04,44,2.90
2011,04,15,04,45,2.90
2011,04,15,04,46,2.90
2011,04,15,04,47,2.90
2011,04,15,04,48,2.90
2011,04,15,04,49,2.90
2011,04,15,04,50,2.90
2011,04,15,04,51,2.90
2011,04,15,04,52,2.90
2011,04,15,04,53,2.90
2011,04,15,04,54,2.90
2011,04,15,04,55,2.90
2011,04,15,04,56,3.00
2011,04,15,04,57,3.00
2011,04,15,04,58,3.00
2011,04,15,04,59,3.00
2011,04,15,05,00,3.00
2011,04,15,05,01,3.10
2011,04,15,05,02,3.10
2011,04,15,05,03,3.10
2011,04,15,05,04,3.10
2011,04,15,05,05,3.20
2011,04,15,05,06,3.20
2011,04,15,05,07,3.20
2011,04,15,05,08,3.20
2011,04,15,05,09,3.20
2011,04,15,05,10,3.20
2011,04,15,05,11,3.30
2011,04,15,05,12,3.30
2011,04,15,05,13,3.30
2011,04,15,05,14,3.30
2011,04,15,05,15,3.30
2011,04,15,05,16,3.40
2011,04,15,05,17,3.40
2011,04,15,05,18,3.40
2011,04,15,05,19,3.50
2011,04,15,05,20,3.50
2011,04,15,05,21,3.50
2011,04,15,05,22,3.50
2011,04,15,05,23,3.60
2011,04,15,05,24,3.70
2011,04,15,05,25,3.70
2011,04,15,05,26,3.80
2011,04,15,05,27,3.80
2011,04,15,05,28,3.90
2011,04,15,05,29,4.00
2011,04,15,05,30,4.00
2011,04,15,05,31,4.10
2011,04,15,05,32,4.10
2011,04,15,05,33,4.20
2011,04,15,05,34,4.20
2011,04,15,05,35,4.20
2011,04,15,05,36,4.20
2011,04,15,05,37,4.30
2011,04,15,05,38,4.30
2011,04,15,05,39,4.40
2011,04,15,05,40,4.40
2011,04,15,05,41,4.40
2011,04,15,05,42,4.50
2011,04,15,05,43,4.50
2011,04,15,05,44,4.60
2011,04,15,05,45,4.60
2011,04,15,05,46,4.60
2011,04,15,05,47,4.70
2011,04,15,05,48,4.70
2011,04,15,05,49,4.80
2011,04,15,05,50,4.80
2011,04,15,05,51,4.80
2011,04,15,05,52,4.90
2011,04,15,05,53,4.90
2011,04,15,05,54,5.00
2011,04,15,05,55,5.00
2011,04,15,05,56,5.10
2011,04,15,05,57,5.10
2011,04,15,05,58,5.10
2011,04,15,05,59,5.20
2011,04,15,06,00,5.20
2011,04,15,06,01,5.20
2011,04,15,06,02,5.20
2011,04,15,06,03,5.20
2011,04,15,06,04,5.30
2011,04,15,06,05,5.30
2011,04,15,06,06,5.30
2011,04,15,06,07,5.30
2011,04,15,06,08,5.30
2011,04,15,06,09,5.30
2011,04,15,06,10,5.30
2011,04,15,06,11,5.30
2011,04,15,06,12,5.30
2011,04,15,06,13,5.30
2011,04,15,06,14,5.20
2011,04,15,06,15,5.20
2011,04,15,06,16,5.20
2011,04,15,06,17,5.20
2011,04,15,06,18,5.20
2011,04,15,06,19,5.20
2011,04,15,06,20,5.20
2011,04,15,06,21,5.20
2011,04,15,06,22,5.20
2011,04,15,06,23,5.20
2011,04,15,06,24,5.10
2011,04,15,06,25,5.10
2011,04,15,06,26,5.10
2011,04,15,06,27,5.10
2011,04,15,06,28,5.10
2011,04,15,06,29,5.00
2011,04,15,06,30,5.00
2011,04,15,06,31,5.00
2011,04,15,06,32,5.10
2011,04,15,06,33,5.10
2011,04,15,06,34,5.10
2011,04,15,06,35,5.10
2011,04,15,06,36,5.10
2011,04,15,06,37,5.10
2011,04,15,06,38,5.10
2011,04,15,06,39,5.10
2011,04,15,06,40,5.10
2011,04,15,06,41,5.10
2011,04,15,06,42,5.10
2011,04,15,06,43,5.10
2011,04,15,06,44,5.10
2011,04,15,06,45,5.10
2011,04,15,06,46,5.10
2011,04,15,06,47,5.10
2011,04,15,06,48,5.10
2011,04,15,06,49,5.20
2011,04,15,06,50,5.20
2011,04,15,06,51,5.20
2011,04,15,06,52,5.20
2011,04,15,06,53,5.30
2011,04,15,06,54,5.30
2011,04,15,06,55,5.30
2011,04,15,06,56,5.40
2011,04,15,06,57,5.40
2011,04,15,06,58,5.40
2011,04,15,06,59,5.50
2011,04,15,07,00,5.50
2011,04,15,07,01,5.60
2011,04,15,07,02,5.60
2011,04,15,07,03,5.60
2011,04,15,07,04,5.60
2011,04,15,07,05,5.60
2011,04,15,07,06,5.60
2011,04,15,07,07,5.60
2011,04,15,07,08,5.60
2011,04,15,07,09,5.70
2011,04,15,07,10,5.70
2011,04,15,07,11,5.70
2011,04,15,07,12,5.70
2011,04,15,07,13,5.70
2011,04,15,07,14,5.70
2011,04,15,07,15,5.70
2011,04,15,07,16,5.70
2011,04,15,07,17,5.70
2011,04,15,07,18,5.70
2011,04,15,07,19,5.70
2011,04,15,07,20,5.70
2011,04,15,07,21,5.70
2011,04,15,07,22,5.80
2011,04,15,07,23,5.80
2011,04,15,07,24,5.80
2011,04,15,07,25,5.80
2011,04,15,07,26,5.80
2011,04,15,07,27,5.80
2011,04,15,07,28,5.80
2011,04,15,07,29,5.80
2011,04,15,07,30,5.80
2011,04,15,07,31,5.80
2011,04,15,07,32,5.80
2011,04,15,07,33,5.80
2011,04,15,07,34,5.80
2011,04,15,07,35,5.80
2011,04,15,07,36,5.80
2011,04,15,07,37,5.80
2011,04,15,07,38,5.80
2011,04,15,07,39,5.80
2011,04,15,07,40,5.90
2011,04,15,07,41,5.90
2011,04,15,07,42,5.90
2011,04,15,07,43,5.90
2011,04,15,07,44,5.90
2011,04,15,07,45,5.90
2011,04,15,07,46,5.90
2011,04,15,07,47,5.90
2011,04,15,07,48,5.90
2011,04,15,07,49,5.90
2011,04,15,07,50,5.90
2011,04,15,07,51,5.90
2011,04,15,07,52,5.90
2011,04,15,07,53,5.90
2011,04,15,07,54,5.90
2011,04,15,07,55,5.90
2011,04,15,07,56,5.90
2011,04,15,07,57,5.90
2011,04,15,07,58,5.90
2011,04,15,07,59,5.90
2011,04,15,08,00,5.90
2011,04,15,08,01,5.90
2011,04,15,08,02,5.90
2011,04,15,08,03,6.00
2011,04,15,08,04,6.00
2011,04,15,08,05,6.00
2011,04,15,08,06,6.00
2011,04,15,08,07,6.00
2011,04,15,08,08,6.00
2011,04,15,08,09,6.00
2011,04,15,08,10,6.00
2011,04,15,08,11,6.10
2011,04,15,08,12,6.10
2011,04,15,08,13,6.10
2011,04,15,08,14,6.10
2011,04,15,08,15,6.10
2011,04,15,08,16,6.10
2011,04,15,08,17,6.10
2011,04,15,08,18,6.10
2011,04,15,08,19,6.10
2011,04,15,08,20,6.10
2011,04,15,08,21,6.10
2011,04,15,08,22,6.10
2011,04,15,08,23,6.10
2011,04,15,08,24,6.10
2011,04,15,08,25,6.10
2011,04,15,08,26,6.10
2011,04,15,08,27,6.10
2011,04,15,08,28,6.10
2011,04,15,08,29,6.10
2011,04,15,08,30,6.10
2011,04,15,08,31,6.10
2011,04,15,08,32,6.10
2011,04,15,08,33,6.10
2011,04,15,08,34,6.10
2011,04,15,08,35,6.10
2011,04,15,08,36,6.10
2011,04,15,08,37,6.20
2011,04,15,08,38,6.20
2011,04,15,08,39,6.20
2011,04,15,08,40,6.20
2011,04,15,08,41,6.30
2011,04,15,08,42,6.30
2011,04,15,08,43,6.30
2011,04,15,08,44,6.30
2011,04,15,08,45,6.30
2011,04,15,08,46,6.30
2011,04,15,08,47,6.40
2011,04,15,08,48,6.40
2011,04,15,08,49,6.40
2011,04,15,08,50,6.50
2011,04,15,08,51,6.50
2011,04,15,08,52,6.50
2011,04,15,08,53,6.60
2011,04,15,08,54,6.60
2011,04,15,08,55,6.60
2011,04,15,08,56,6.60
2011,04,15,08,57,6.60
2011,04,15,08,58,6.60
2011,04,15,08,59,6.60
2011,04,15,09,00,6.60
2011,04,15,09,01,6.60
2011,04,15,09,02,6.70
2011,04,15,09,03,6.70
2011,04,15,09,04,6.70
2011,04,15,09,05,6.70
2011,04,15,09,06,6.70
2011,04,15,09,07,6.70
2011,04,15,09,08,6.80
2011,04,15,09,09,6.80
2011,04,15,09,10,6.80
2011,04,15,09,11,6.80
2011,04,15,09,12,6.80
2011,04,15,09,13,6.80
2011,04,15,09,14,6.80
2011,04,15,09,15,6.80
2011,04,15,09,16,6.90
2011,04,15,09,17,6.90
2011,04,15,09,18,6.90
2011,04,15,09,19,6.90
2011,04,15,09,20,6.90
2011,04,15,09,21,7.00
2011,04,15,09,22,7.00
2011,04,15,09,23,6.90
2011,04,15,09,24,6.90
2011,04,15,09,25,6.90
2011,04,15,09,26,6.90
2011,04,15,09,27,6.90
2011,04,15,09,28,6.90
2011,04,15,09,29,6.90
2011,04,15,09,30,6.80
2011,04,15,09,31,6.80
2011,04,15,09,32,6.80
2011,04,15,09,33,6.80
2011,04,15,09,34,6.80
2011,04,15,09,35,6.70
2011,04,15,09,36,6.70
2011,04,15,09,37,6.70
2011,04,15,09,38,6.60
2011,04,15,09,39,6.60
2011,04,15,09,40,6.60
2011,04,15,09,41,6.60
2011,04,15,09,42,6.60
2011,04,15,09,43,6.60
2011,04,15,09,44,6.60
2011,04,15,09,45,6.60
2011,04,15,09,46,6.60
2011,04,15,09,47,6.60
2011,04,15,09,48,6.60
2011,04,15,09,49,6.70
2011,04,15,09,50,6.70
2011,04,15,09,51,6.70
2011,04,15,09,52,6.70
2011,04,15,09,53,6.70
2011,04,15,09,54,6.60
2011,04,15,09,55,6.60
2011,04,15,09,56,6.60
2011,04,15,09,57,6.60
2011,04,15,09,58,6.60
2011,04,15,09,59,6.60
2011,04,15,10,00,6.60
2011,04,15,10,01,6.60
2011,04,15,10,02,6.60
2011,04,15,10,03,6.60
2011,04,15,10,04,6.60
2011,04,15,10,05,6.60
2011,04,15,10,06,6.70
2011,04,15,10,07,6.70
2011,04,15,10,08,6.70
2011,04,15,10,09,6.70
2011,04,15,10,10,6.70
2011,04,15,10,11,6.70
2011,04,15,10,12,6.70
2011,04,15,10,13,6.70
2011,04,15,10,14,6.80
2011,04,15,10,15,6.80
2011,04,15,10,16,6.80
2011,04,15,10,17,6.80
2011,04,15,10,18,6.80
2011,04,15,10,19,6.80
2011,04,15,10,20,6.80
2011,04,15,10,21,6.80
2011,04,15,10,22,6.90
2011,04,15,10,23,6.90
2011,04,15,10,24,6.90
2011,04,15,10,25,6.90
2011,04,15,10,26,6.90
2011,04,15,10,27,6.90
2011,04,15,10,28,6.90
2011,04,15,10,29,6.90
2011,04,15,10,30,6.90
2011,04,15,10,31,6.90
2011,04,15,10,32,6.90
2011,04,15,10,33,6.90
2011,04,15,10,34,6.90
2011,04,15,10,35,6.90
2011,04,15,10,36,6.90
2011,04,15,10,37,7.00
2011,04,15,10,38,7.00
2011,04,15,10,39,7.00
2011,04,15,10,40,7.00
2011,04,15,10,41,7.10
2011,04,15,10,42,7.10
2011,04,15,10,43,7.10
2011,04,15,10,44,7.10
2011,04,15,10,45,7.10
2011,04,15,10,46,7.10
2011,04,15,10,47,7.10
2011,04,15,10,48,7.10
2011,04,15,10,49,7.10
2011,04,15,10,50,7.10
2011,04,15,10,51,7.10
2011,04,15,10,52,7.20
2011,04,15,10,53,7.20
2011,04,15,10,54,7.20
2011,04,15,10,55,7.20
2011,04,15,10,56,7.20
2011,04,15,10,57,7.20
2011,04,15,10,58,7.20
2011,04,15,10,59,7.30
2011,04,15,11,00,7.30
2011,04,15,11,01,7.30
2011,04,15,11,02,7.30
2011,04,15,11,03,7.30
2011,04,15,11,04,7.20
2011,04,15,11,05,7.20
2011,04,15,11,06,7.20
2011,04,15,11,07,7.20
2011,04,15,11,08,7.20
2011,04,15,11,09,7.20
2011,04,15,11,10,7.20
2011,04,15,11,11,7.20
2011,04,15,11,12,7.20
2011,04,15,11,13,7.20
2011,04,15,11,14,7.20
2011,04,15,11,15,7.30
2011,04,15,11,16,7.30
2011,04,15,11,17,7.30
2011,04,15,11,18,7.30
2011,04,15,11,19,7.30
2011,04,15,11,20,7.40
2011,04,15,11,21,7.40
2011,04,15,11,22,7.50
2011,04,15,11,23,7.50
2011,04,15,11,24,7.60
2011,04,15,11,25,7.60
2011,04,15,11,26,7.70
2011,04,15,11,27,7.80
2011,04,15,11,28,7.80
2011,04,15,11,29,7.90
2011,04,15,11,30,7.90
2011,04,15,11,31,7.90
2011,04,15,11,32,8.00
2011,04,15,11,33,8.00
2011,04,15,11,34,8.10
2011,04,15,11,35,8.10
2011,04,15,11,36,8.10
2011,04,15,11,37,8.20
2011,04,15,11,38,8.20
2011,04,15,11,39,8.20
2011,04,15,11,40,8.20
2011,04,15,11,41,8.20
2011,04,15,11,42,8.20
2011,04,15,11,43,8.20
2011,04,15,11,44,8.20
2011,04,15,11,45,8.20
2011,04,15,11,46,8.20
2011,04,15,11,47,8.20
2011,04,15,11,48,8.20
2011,04,15,11,49,8.20
2011,04,15,11,50,8.10
2011,04,15,11,51,8.10
2011,04,15,11,52,8.20
2011,04,15,11,53,8.20
2011,04,15,11,54,8.20
2011,04,15,11,55,8.20
2011,04,15,11,56,8.20
2011,04,15,11,57,8.30
2011,04,15,11,58,8.30
2011,04,15,11,59,8.20
2011,04,15,12,00,8.20
2011,04,15,12,01,8.10
2011,04,15,12,02,8.10
2011,04,15,12,03,8.10
2011,04,15,12,04,8.10
2011,04,15,12,05,8.10
2011,04,15,12,06,8.10
2011,04,15,12,07,8.20
2011,04,15,12,08,8.20
2011,04,15,12,09,8.20
2011,04,15,12,10,8.20
2011,04,15,12,11,8.20
2011,04,15,12,12,8.20
2011,04,15,12,13,8.20
2011,04,15,12,14,8.20
2011,04,15,12,15,8.30
2011,04,15,12,16,8.30
2011,04,15,12,17,8.30
2011,04,15,12,18,8.30
2011,04,15,12,19,8.30
2011,04,15,12,20,8.40
2011,04,15,12,21,8.40
2011,04,15,12,22,8.40
2011,04,15,12,23,8.40
2011,04,15,12,24,8.50
2011,04,15,12,25,8.50
2011,04,15,12,26,8.50
2011,04,15,12,27,8.40
2011,04,15,12,28,8.40
2011,04,15,12,29,8.40
2011,04,15,12,30,8.40
2011,04,15,12,31,8.40
2011,04,15,12,32,8.30
2011,04,15,12,33,8.30
2011,04,15,12,34,8.30
2011,04,15,12,35,8.40
2011,04,15,12,36,8.40
2011,04,15,12,37,8.50
2011,04,15,12,38,8.50
2011,04,15,12,39,8.60
2011,04,15,12,40,8.60
2011,04,15,12,41,8.60
2011,04,15,12,42,8.60
2011,04,15,12,43,8.60
2011,04,15,12,44,8.60
2011,04,15,12,45,8.60
2011,04,15,12,46,8.60
2011,04,15,12,47,8.60
2011,04,15,12,48,8.70
2011,04,15,12,49,8.70
2011,04,15,12,50,8.70
2011,04,15,12,51,8.70
2011,04,15,12,52,8.70
2011,04,15,12,53,8.70
2011,04,15,12,54,8.70
2011,04,15,12,55,8.70
2011,04,15,12,56,8.70
2011,04,15,12,57,8.80
2011,04,15,12,58,8.80
2011,04,15,12,59,8.80
2011,04,15,13,00,8.80
2011,04,15,13,01,8.80
2011,04,15,13,02,8.80
2011,04,15,13,03,8.90
2011,04,15,13,04,8.90
2011,04,15,13,05,8.90
2011,04,15,13,06,9.00
2011,04,15,13,07,9.00
2011,04,15,13,08,9.10
2011,04,15,13,09,9.10
2011,04,15,13,10,9.20
2011,04,15,13,11,9.20
2011,04,15,13,12,9.30
2011,04,15,13,13,9.30
2011,04,15,13,14,9.30
2011,04,15,13,15,9.30
2011,04,15,13,16,9.30
2011,04,15,13,17,9.30
2011,04,15,13,18,9.30
2011,04,15,13,19,9.30
2011,04,15,13,20,9.30
2011,04,15,13,21,9.30
2011,04,15,13,22,9.30
2011,04,15,13,23,9.30
2011,04,15,13,24,9.30
2011,04,15,13,25,9.30
2011,04,15,13,26,9.40
2011,04,15,13,27,9.40
2011,04,15,13,28,9.40
2011,04,15,13,29,9.50
2011,04,15,13,30,9.50
2011,04,15,13,31,9.60
2011,04,15,13,32,9.60
2011,04,15,13,33,9.60
2011,04,15,13,34,9.60
2011,04,15,13,35,9.60
2011,04,15,13,36,9.60
2011,04,15,13,37,9.60
2011,04,15,13,38,9.60
2011,04,15,13,39,9.50
2011,04,15,13,40,9.50
2011,04,15,13,41,9.50
2011,04,15,13,42,9.50
2011,04,15,13,43,9.50
2011,04,15,13,44,9.50
2011,04,15,13,45,9.50
2011,04,15,13,46,9.50
2011,04,15,13,47,9.40
2011,04,15,13,48,9.40
2011,04,15,13,49,9.40
2011,04,15,13,50,9.40
2011,04,15,13,51,9.40
2011,04,15,13,52,9.40
2011,04,15,13,53,9.40
2011,04,15,13,54,9.40
2011,04,15,13,55,9.40
2011,04,15,13,56,9.40
2011,04,15,13,57,9.40
2011,04,15,13,58,9.40
2011,04,15,13,59,9.40
2011,04,15,14,00,9.40
2011,04,15,14,01,9.40
2011,04,15,14,02,9.40
2011,04,15,14,03,9.40
2011,04,15,14,04,9.40
2011,04,15,14,05,9.40
2011,04,15,14,06,9.40
2011,04,15,14,07,9.40
2011,04,15,14,08,9.40
2011,04,15,14,09,9.40
2011,04,15,14,10,9.40
2011,04,15,14,11,9.40
2011,04,15,14,12,9.30
2011,04,15,14,13,9.30
2011,04,15,14,14,9.30
2011,04,15,14,15,9.30
2011,04,15,14,16,9.30
2011,04,15,14,17,9.30
2011,04,15,14,18,9.30
2011,04,15,14,19,9.30
2011,04,15,14,20,9.30
2011,04,15,14,21,9.30
2011,04,15,14,22,9.30
2011,04,15,14,23,9.30
2011,04,15,14,24,9.30
2011,04,15,14,25,9.30
2011,04,15,14,26,9.30
2011,04,15,14,27,9.30
2011,04,15,14,28,9.20
2011,04,15,14,29,9.20
2011,04,15,14,30,9.20
2011,04,15,14,31,9.20
2011,04,15,14,32,9.20
2011,04,15,14,33,9.20
2011,04,15,14,34,9.20
2011,04,15,14,35,9.20
2011,04,15,14,36,9.20
2011,04,15,14,37,9.30
2011,04,15,14,38,9.30
2011,04,15,14,39,9.30
2011,04,15,14,40,9.30
2011,04,15,14,41,9.30
2011,04,15,14,42,9.40
2011,04,15,14,43,9.40
2011,04,15,14,44,9.40
2011,04,15,14,45,9.40
2011,04,15,14,46,9.40
2011,04,15,14,47,9.40
2011,04,15,14,48,9.40
2011,04,15,14,49,9.50
2011,04,15,14,50,9.50
2011,04,15,14,51,9.50
2011,04,15,14,52,9.50
2011,04,15,14,53,9.60
2011,04,15,14,54,9.60
2011,04,15,14,55,9.60
2011,04,15,14,56,9.50
2011,04,15,14,57,9.50
2011,04,15,14,58,9.50
2011,04,15,14,59,9.40
2011,04,15,15,00,9.40
2011,04,15,15,01,9.40
2011,04,15,15,02,9.30
2011,04,15,15,03,9.30
2011,04,15,15,04,9.30
2011,04,15,15,05,9.30
2011,04,15,15,06,9.20
2011,04,15,15,07,9.20
2011,04,15,15,08,9.20
2011,04,15,15,09,9.20
2011,04,15,15,10,9.20
2011,04,15,15,11,9.20
2011,04,15,15,12,9.20
2011,04,15,15,13,9.20
2011,04,15,15,14,9.10
2011,04,15,15,15,9.10
2011,04,15,15,16,9.10
2011,04,15,15,17,9.10
2011,04,15,15,18,9.10
2011,04,15,15,19,9.00
2011,04,15,15,20,9.00
2011,04,15,15,21,9.00
2011,04,15,15,22,8.90
2011,04,15,15,23,8.90
2011,04,15,15,24,8.90
2011,04,15,15,25,8.80
2011,04,15,15,26,8.80
2011,04,15,15,27,8.80
2011,04,15,15,28,8.80
2011,04,15,15,29,8.80
2011,04,15,15,30,8.80
2011,04,15,15,31,8.80
2011,04,15,15,32,8.80
2011,04,15,15,33,8.90
2011,04,15,15,34,8.90
2011,04,15,15,35,8.90
2011,04,15,15,36,8.90
2011,04,15,15,37,8.90
2011,04,15,15,38,9.00
2011,04,15,15,39,9.00
2011,04,15,15,40,9.00
2011,04,15,15,41,9.00
2011,04,15,15,42,9.00
2011,04,15,15,43,9.00
2011,04,15,15,44,9.00
2011,04,15,15,45,9.00
2011,04,15,15,46,9.00
2011,04,15,15,47,9.00
2011,04,15,15,48,9.00
2011,04,15,15,49,9.00
2011,04,15,15,50,9.00
2011,04,15,15,51,9.10
2011,04,15,15,52,9.10
2011,04,15,15,53,9.10
2011,04,15,15,54,9.10
2011,04,15,15,55,9.10
2011,04,15,15,56,9.10
2011,04,15,15,57,9.10
2011,04,15,15,58,9.10
2011,04,15,15,59,9.10
2011,04,15,16,00,9.10
2011,04,15,16,01,9.00
2011,04,15,16,02,9.00
2011,04,15,16,03,9.00
2011,04,15,16,04,9.00
2011,04,15,16,05,8.90
2011,04,15,16,06,8.90
2011,04,15,16,07,8.90
2011,04,15,16,08,8.90
2011,04,15,16,09,9.00
2011,04,15,16,10,9.00
2011,04,15,16,11,9.00
2011,04,15,16,12,9.00
2011,04,15,16,13,9.00
2011,04,15,16,14,9.00
2011,04,15,16,15,9.00
2011,04,15,16,16,9.10
2011,04,15,16,17,9.10
2011,04,15,16,18,9.10
2011,04,15,16,19,9.10
2011,04,15,16,20,9.10
2011,04,15,16,21,9.10
2011,04,15,16,22,9.10
2011,04,15,16,23,9.20
2011,04,15,16,24,9.20
2011,04,15,16,25,9.20
2011,04,15,16,26,9.20
2011,04,15,16,27,9.20
2011,04,15,16,28,9.20
2011,04,15,16,29,9.20
2011,04,15,16,30,9.20
2011,04,15,16,31,9.20
2011,04,15,16,32,9.20
2011,04,15,16,33,9.20
2011,04,15,16,34,9.20
2011,04,15,16,35,9.20
2011,04,15,16,36,9.20
2011,04,15,16,37,9.20
2011,04,15,16,38,9.20
2011,04,15,16,39,9.20
2011,04,15,16,40,9.20
2011,04,15,16,41,9.20
2011,04,15,16,42,9.20
2011,04,15,16,43,9.10
2011,04,15,16,44,9.10
2011,04,15,16,45,9.10
2011,04,15,16,46,9.10
2011,04,15,16,47,9.10
2011,04,15,16,48,9.10
2011,04,15,16,49,9.10
2011,04,15,16,50,9.10
2011,04,15,16,51,9.10
2011,04,15,16,52,9.10
2011,04,15,16,53,9.10
2011,04,15,16,54,9.10
2011,04,15,16,55,9.10
2011,04,15,16,56,9.10
2011,04,15,16,57,9.10
2011,04,15,16,58,9.10
2011,04,15,16,59,9.10
2011,04,15,17,00,9.10
2011,04,15,17,01,9.10
2011,04,15,17,02,9.10
2011,04,15,17,03,9.10
2011,04,15,17,04,9.10
2011,04,15,17,05,9.10
2011,04,15,17,06,9.10
2011,04,15,17,07,9.10
2011,04,15,17,08,9.10
2011,04,15,17,09,9.10
2011,04,15,17,10,9.10
2011,04,15,17,11,9.00
2011,04,15,17,12,9.00
2011,04,15,17,13,9.00
2011,04,15,17,14,9.00
2011,04,15,17,15,9.00
2011,04,15,17,16,9.00
2011,04,15,17,17,9.00
2011,04,15,17,18,9.00
2011,04,15,17,19,9.00
2011,04,15,17,20,9.00
2011,04,15,17,21,8.90
2011,04,15,17,22,8.90
2011,04,15,17,23,8.90
2011,04,15,17,24,8.90
2011,04,15,17,25,8.90
2011,04,15,17,26,8.90
2011,04,15,17,27,8.80
2011,04,15,17,28,8.80
2011,04,15,17,29,8.80
2011,04,15,17,30,8.80
2011,04,15,17,31,8.80
2011,04,15,17,32,8.80
2011,04,15,17,33,8.70
2011,04,15,17,34,8.70
2011,04,15,17,35,8.70
2011,04,15,17,36,8.70
2011,04,15,17,37,8.70
2011,04,15,17,38,8.70
2011,04,15,17,39,8.70
2011,04,15,17,40,8.70
2011,04,15,17,41,8.70
2011,04,15,17,42,8.60
2011,04,15,17,43,8.60
2011,04,15,17,44,8.60
2011,04,15,17,45,8.60
2011,04,15,17,46,8.60
2011,04,15,17,47,8.60
2011,04,15,17,48,8.60
2011,04,15,17,49,8.60
2011,04,15,17,50,8.60
2011,04,15,17,51,8.60
2011,04,15,17,52,8.60
2011,04,15,17,53,8.50
2011,04,15,17,54,8.50
2011,04,15,17,55,8.50
2011,04,15,17,56,8.40
2011,04,15,17,57,8.40
2011,04,15,17,58,8.40
2011,04,15,17,59,8.40
2011,04,15,18,00,8.30
2011,04,15,18,01,8.30
2011,04,15,18,02,8.30
2011,04,15,18,03,8.30
2011,04,15,18,04,8.30
2011,04,15,18,05,8.30
2011,04,15,18,06,8.30